NUSANTARA TIGA (SATRIA)

Last updated on Tue Oct 28 2025 00:02:52 GMT+0000 (Coordinated Universal Time)

1 57045U 23086A 25299.85991852 -.00000223 00000+0 00000+0 0 9990 2 57045 0.0439 335.8549 0004010 310.5847 204.6316 1.00269927 7420
UTC large
Height (km)
Speed (km/s)
/
Latitude / Longitude
Inclination (degrees)
Orbital Period (minutes)
Azimuth
Elevation
Range (km)
Doppler Factor

Next 0 passes for location: London (51.5072 / 0.1276)

Sorry there are no passes over London.